Location: *
(46.1866°S, 178.5290°W)
Time: 05:46:36
(UTC+00:00)

CZ-4B R/B - Pass Details

Date: 27 September 2021
Orbit: 809 x 881 km, 99.1° (Epoch: 17 October)

Event Time Altitude Azimuth Distance (km) Brightness Sun altitude
Rises 07:07:48 0° 166° (SSE) 3,374 6.4 -12.8°
Reaches altitude 10° 07:10:10 10° 166° (SSE) 2,433 5.6 -13.2°
Maximum altitude 07:15:33 86° 253° (WSW) 830 3.2 -14.1°
Drops below altitude 10° 07:20:54 10° 341° (NNW) 2,414 5.6 -15.0°
Sets 07:23:14 0° 342° (NNW) 3,345 6.3 -15.4°
